Location: ????
(33.1659°N, 35.6604°E)
Time: 16:46:48
(UTC+00:00)

DELTA 2 R/B (1) - Pass Details

Date: 20 September 2019
Orbit: 791 x 802 km, 39.6° (Epoch: 19 October)

Event Time Altitude Azimuth Distance (km) Brightness Sun altitude
Rises 16:38:54 0° 254° (WSW) 3,296 8.0 -13.6°
Reaches altitude 10° 16:41:24 10° 257° (WSW) 2,367 7.1 -14.1°
Maximum altitude 16:46:59 69° 340° (NNW) 853 3.8 -15.3°
Enters shadow 16:51:20 17° 62° (ENE) 1,928 5.1 -16.2°
